Flag for Poland Weather past 2 weeks in Grudziądz, Poland

Now
48 °F

Fog.


Feels Like: 48 °F
Forecast: 51 / 71 °F
Wind: 1 mph from East

Location: Torun

Current Time: Sep 20, 2014 at 6:49:51 AM

Latest Report: Sep 20, 2014 at 6:00 AM


Visibility: 0 mi

Pressure: 29.97 "Hg

Humidity: 96%

Dew point: 47 °F

Location of GrudziądzLocation

Historic Weather in Grudziądz — Graph

°F

Grudziądz temperature yesterday

Maximum temperature yesterday: 70 °F (at 4:00 PM)
Minimum temperature yesterday: 54 °F (at 7:00 AM)
Average temperature yesterday: 63 °F

Past Weeks' High & Low Weather Summary

 TemperatureHumidityPressure
High81 °F (Sep 14, 3:00 PM)100% (Sep 9, 12:00 AM)30.25 "Hg (Sep 9, 12:00 AM)
Low44 °F (Sep 6, 5:00 AM)32% (Sep 14, 4:00 PM)29.93 "Hg (Sep 7, 5:00 PM)
Average63 °F70%30.08 "Hg
* Reported Sep 5 5:00 AM — Sep 20 5:00 AM, Grudziądz, Weather by CustomWeather, © 2014

Note: Actual official high and low records may vary slightly from our data, if they occured in-between our weather recording intervals... More about our weather records

Advertising

Grudziądz weather history for previous 24 hours

 ConditionsComfort  
Time TempWeatherWind HumidityBarometerVisibility
5:00 AM
Sep 20
49 °FFog.1 mph95%29.97 "Hg1 mi
4:00 AM50 °FFog.1 mph94%29.98 "Hg1 mi
3:00 AM52 °FFog.1 mph94%29.98 "Hg2 mi
2:00 AM54 °FFog.1 mph92%29.98 "Hg2 mi
1:00 AM56 °FFog.2 mph92%29.99 "Hg4 mi
12:00 AM53 °FFog.1 mph89%30.00 "Hg4 mi
11:00 PM
Sep 19
56 °FPassing clouds.1 mph81%30.01 "Hg7 mi
10:00 PM61 °FPassing clouds.2 mph75%30.01 "Hg11 mi
9:00 PM62 °FPassing clouds.2 mph73%30.02 "Hg11 mi
8:00 PM63 °FPassing clouds.1 mph74%30.01 "Hg8 mi
7:00 PM66 °FPassing clouds.2 mph67%30.01 "Hg11 mi
6:00 PM67 °FOvercast.2 mph62%30.01 "Hg11 mi
5:00 PM68 °FScattered clouds.2 mph58%30.01 "Hg12 mi
4:00 PM70 °FScattered clouds.3 mph53%30.01 "Hg14 mi
3:00 PM69 °FPartly sunny.3 mph54%30.02 "Hg15 mi
2:00 PM68 °FPartly sunny.2 mph58%30.03 "Hg11 mi
1:00 PM67 °FPartly sunny.3 mph59%30.04 "Hg14 mi
12:00 PM66 °FOvercast.3 mph59%30.04 "Hg10 mi
11:00 AM65 °FPartly sunny.3 mph61%30.06 "Hg12 mi
10:00 AM62 °FPartly sunny.3 mph69%30.06 "Hg10 mi
9:00 AM59 °FPartly sunny.3 mph77%30.07 "Hg8 mi
8:00 AM56 °FOvercast.3 mph79%30.07 "Hg6 mi
7:00 AM54 °FPartly sunny.2 mph85%30.07 "Hg7 mi
Weather by CustomWeather, © 2014

See weather overviewHow to use our weather pages